Regional Weather Roundup
Issued by NWS

Home | Current Version | Previous Version | Graphics & Text | Print | Product List | Glossary On
Versions: 1 2 3 4 5 6 7 8 9 10 11 12 13 14 15 16 17 18 19 20 21 22 23 24 25 26 27 28 29 30 31 32 33 34 35 36 37 38 39 40 41 42 43 44 45 46 47 48 49 50
000
ASUS43 KMPX 171601
RWRMN
WEATHER ROUNDUP FOR MINNESOTA
NATIONAL WEATHER SERVICE TWIN CITIES/CHANHASSEN MN
1100 AM CDT TUE OCT 17 2017


NOTE: "FAIR" INDICATES FEW OR NO CLOUDS BELOW 12,000 FEET WITH NO
SIGNIFICANT WEATHER AND/OR OBSTRUCTIONS TO VISIBILITY. N/A MEANS
CURRENT SKY AND/OR WEATHER CONDITIONS ARE NOT AVAILABLE.

MNZ060>063-068>070-171700-
   Twin Cities Metro

CITY           SKY/WX    TMP DP  RH WIND       PRES   REMARKS
TWIN CITIES    MOSUNNY   56  44  64 SW5       30.03R
ST PAUL        SUNNY     55  46  71 SE5       30.04S
CRYSTAL        SUNNY     57  42  57 CALM      30.01S
LAKEVILLE      SUNNY     57  45  62 CALM      30.03S
EDEN PRAIRIE   SUNNY     55  43  63 SW6       30.02R
SOUTH ST PAUL  SUNNY     56  44  63 E3        30.03R HAZE
LAKE ELMO      FAIR      55  45  67 CALM      30.04R
$$
MNZ001>005-007-008-013>017-022>024-027-028-171700-
   Northwest Minnesota

CITY           SKY/WX    TMP DP  RH WIND       PRES   REMARKS
BEMIDJI        CLOUDY    58  38  47 S10       29.92F
HALLOCK        SUNNY     55  37  50 S14       29.81F
ROSEAU           N/A     61  43  51 S16       29.85S
WARROAD        SUNNY     57  43  58 S12       29.86F
CROOKSTON      CLOUDY    52  39  62 S12       29.88S
FOSSTON        MOSUNNY   57  37  47 S13       29.91F
DETROIT LAKES  SUNNY     55  41  58 S9        29.95F
MOORHEAD       SUNNY     52  39  62 S10       29.94F
PARK RAPIDS    CLOUDY    58  42  55 S10       29.95F
MAHNOMEN       FAIR      55  41  60 S12       29.92F
$$
MNZ006-009>011-018-025>026-171700-
   North Central Minnesota

CITY           SKY/WX    TMP DP  RH WIND       PRES   REMARKS
BAUDETTE       SUNNY     57  38  48 MISG      29.88S
FLAG ISLAND    SUNNY     52  43  71 S12       29.84F
INTL FALLS     SUNNY     55  38  52 VRB3      29.91F
WASKISH        PTSUNNY   59  39  47 S8        29.90S
BIG FORK       CLOUDY    57  43  58 S6        29.92F
LONGVILLE      SUNNY     61  39  44 S6        29.96F
GRAND RAPIDS   SUNNY     59  40  49 S12       29.97F
CRANE LAKE     SUNNY     52  39  62 CALM      29.95F
ORR            CLOUDY    57  36  44 SW3       29.91F
COOK           CLOUDY    55  39  54 SW8       29.94F
WALKER         FAIR      59  37  43 S7        29.96S
$$
MNZ012-019>021-037-171700-
   Northeast Minnesota

CITY           SKY/WX    TMP DP  RH WIND       PRES   REMARKS
DULUTH         MOSUNNY   60  40  47 SW6       29.98R
ELY            SUNNY     55  37  50 S3        29.95S
HIBBING        CLOUDY    49  40  71 CALM      29.96S
EVELETH        PTSUNNY   52  47  84 CALM      29.98R
DULUTH HARBOR  MOSUNNY   57  45  62 SW6       29.98S
TWO HARBORS    CLOUDY    59  46  63 S5        29.96S
GRAND MARAIS     N/A     51  42  71 W6        29.95S
G MARAIS ARPRT MOSUNNY   55  34  44 S3        29.96S
$$
MNZ029>031-032-039>041-046>048-054>057-064-171700-
   West Central Minnesota

CITY           SKY/WX    TMP DP  RH WIND       PRES   REMARKS
FERGUS FALLS   SUNNY     55  43  62 S5        29.98R
WHEATON        SUNNY     59  41  51 S5        29.98F
MORRIS         SUNNY     57  46  67 S7        29.98F
ALEXANDRIA     SUNNY     60  41  49 S10       29.99F
ELBOW LAKE     FAIR      55  45  68 S7        29.98F
WADENA         SUNNY     61  43  51 S7        29.97S
GLENWOOD       SUNNY     61  45  55 S6        30.00F
APPLETON       SUNNY     61  45  55 CALM      29.99S
BENSON         SUNNY     57  43  58 S3        30.02S
ORTONVILLE     SUNNY     57  43  58 CALM      29.99S
MADISON        SUNNY     63  45  51 SW5       29.99F
WILLMAR        FAIR      57  46  67 CALM      30.02S
$$
MNZ033>034-036-042>043-049>051-058-059-171700-
   Central Minnesota

CITY           SKY/WX    TMP DP  RH WIND       PRES   REMARKS
ST CLOUD       SUNNY     57  47  69 S3        30.00F
SAUK CENTRE    FAIR      60  45  57 S7        30.00S
PAYNESVILLE    SUNNY     60  45  57 S3        30.02S
AITKIN         SUNNY     59  39  47 S7        29.97S
PINE RIVER     SUNNY     55  43  62 SE3       30.00F
BRAINERD       SUNNY     58  42  55 SW7       29.99S
STAPLES        SUNNY     57  41  54 S3        29.98R
LONG PRAIRIE   FAIR      59  45  58 S8        29.98F
LITTLE FALLS   SUNNY     55  37  50 S6        29.99S
LITCHFIELD     SUNNY     59  48  67 CALM      30.02S
BUFFALO        SUNNY     54  44  67 CALM      30.03S
MAPLE LAKE     SUNNY     57  47  68 CALM      30.02S
HUTCHINSON     SUNNY     58  47  65 S3        30.03S
$$
MNZ037-044-045-052-053-171700-
   East Central Minnesota

CITY           SKY/WX    TMP DP  RH WIND       PRES   REMARKS
PRINCETON      SUNNY     59  46  63 SE3       30.00F
MORA           SUNNY     55  43  62 CALM      30.01F
CAMBRIDGE      SUNNY     61  45  55 S5        30.00F
RUSH CITY      SUNNY     56  44  65 S5        30.01F
MOOSE LAKE     SUNNY     55  41  58 CALM      29.98S
HINCKLEY       FAIR      55  45  67 S3        30.01R
CLOQUET        SUNNY     61  37  41 S7        29.97F
MCGREGOR       SUNNY     59  43  55 S6        29.99S
$$
MNZ071>073-080-081-089-090-097-098-171700-
   Southwest Minnesota

CITY           SKY/WX    TMP DP  RH WIND       PRES   REMARKS
MONTEVIDEO     SUNNY     64  43  45 CALM      30.01S
GRANITE FALLS  SUNNY     62  45  53 CALM      30.03S
CANBY          SUNNY     67  40  36 SW7       30.01S
MARSHALL       SUNNY     68  41  37 W7        30.02S
REDWOOD FALLS  SUNNY     59  41  51 CALM      30.02S
OLIVIA         SUNNY     57  43  58 CALM      30.01S
PIPESTONE      SUNNY     61  45  55 W5        30.04S
WORTHINGTON    SUNNY     62  42  47 SW6       30.05S
JACKSON        SUNNY     61  41  48 SW7       30.05S
TRACY          SUNNY     66  42  41 SW9       30.02S
SLAYTON        SUNNY     65  41  42 SW8       30.04S
$$
MNZ065>067-074>077-082>085-091>093-171700-
   South Central Minnesota

CITY           SKY/WX    TMP DP  RH WIND       PRES   REMARKS
MANKATO        SUNNY     58  42  55 S3        30.04S
NEW ULM        SUNNY     57  43  58 SW3       30.02F
ST JAMES       SUNNY     63  43  48 CALM      30.05S
FAIRMONT       SUNNY     61  43  51 SW7       30.05S
GLENCOE        SUNNY     58  46  63 CALM      30.02S
FARIBAULT      SUNNY     57  45  62 S7        30.04S
OWATONNA       SUNNY     61  43  51 SW7       30.05S
WASECA         SUNNY     57  41  54 SW7       30.06S
ALBERT LEA     SUNNY     63  45  51 S5        30.06S
$$
MNZ078>079-086>088-094>096-171700-
   Southeast Minnesota

CITY           SKY/WX    TMP DP  RH WIND       PRES   REMARKS
ROCHESTER      SUNNY     60  45  57 S9        30.07R
RED WING       SUNNY     57  41  54 SE5       30.03S
STANTON        SUNNY     60  44  55 S5        30.02S
DODGE CENTER   SUNNY     59  43  55 SW8       30.06R
WINONA         SUNNY     59  43  55 SW3       30.07S
AUSTIN         SUNNY     59  43  55 S7        30.06S
PRESTON        SUNNY     58  43  56 SW7       30.08R
$$
ABBREVIATIONS USED IN REMARKS
   TC - TEMPERATURES IN CELSIUS
  WCI - WIND CHILL INDEX
   HX - HEAT INDEX
  VSB - VISIBILITY
$$



USA.gov is the U.S. government's official web portal to all federal, state and local government web resources and services.